Theta_e
301 301 301 301 303 303 304 307 308 310 311 312 314 315 314 315 312 312 317 316 310 308 310 307 306 306 308 307 304 309 306 306 306 301 300 300 298 300 298 300 298 298 296 295 296 291 289 304 302 295 302 307 306 306
301 300 301 301 301 302 303 304 307 308 310 311 313 314 315 315 312 308 313 315 316 308 310 311 311 311 309 309 310 310 308 307 311 305 305 306 299 301 299 295 302 296 299 300 299 299 306 307 306 308 309 308 307 306
300 300 301 301 301 301 302 302 306 307 308 310 312 313 315 315 313 310 314 316 311 308 309 309 309 314 314 313 315 307 309 311 311 312 309 305 298 303 297 296 298 300 303 298 298 302 304 306 308 309 309 308 308 308
302 302 302 301 301 301 301 302 303 305 307 308 310 312 313 314 314 310 310 317 311 309 303 308 311 309 312 313 312 313 312 314 314 309 305 302 299 303 300 300 298 302 303 300 301 303 304 305 306 307 307 308 308 307
301 301 302 301 300 301 301 301 302 304 306 307 309 311 313 313 313 312 311 313 315 308 303 306 311 311 310 311 310 311 312 311 307 304 302 300 305 301 303 301 298 303 301 299 300 303 304 303 307 308 307 307 307 305
301 301 301 301 302 301 301 301 301 303 305 306 309 310 311 312 312 306 303 313 317 312 305 302 307 306 308 310 309 310 311 309 307 304 303 306 306 304 298 297 304 306 307 309 305 308 307 308 310 310 308 307 306 305
300 301 301 301 302 302 301 300 300 302 303 306 307 308 309 310 309 304 303 306 310 313 300 300 303 305 309 310 309 308 311 309 307 306 303 304 304 302 300 297 303 307 307 309 310 309 306 308 306 308 308 306 307 306
300 300 301 301 302 302 301 300 300 302 302 305 306 307 308 309 308 305 305 304 308 306 301 296 299 300 308 303 302 309 305 306 306 305 306 302 304 302 297 304 306 307 307 307 308 310 309 310 309 307 306 306 304 303
300 301 300 301 302 302 301 300 300 300 302 304 306 307 306 305 302 305 305 305 306 303 295 297 297 296 306 304 306 304 307 301 307 300 301 303 300 297 302 305 306 306 306 306 308 308 309 307 305 304 305 304 302 303
300 300 300 301 302 302 301 299 299 300 302 304 304 303 298 303 308 306 301 296 298 299 298 297 304 299 302 302 301 302 304 301 297 300 305 299 298 307 309 309 309 308 309 309 306 305 305 304 303 303 302 302 304 304
300 300 300 301 302 301 301 299 300 301 302 304 299 299 303 309 303 300 293 290 291 290 295 298 303 300 304 298 299 304 300 301 294 299 298 299 299 305 309 309 310 310 310 310 310 309 307 306 303 301 302 303 304 306
300 300 300 301 301 301 301 300 301 302 303 304 304 304 303 299 295 288 288 292 290 292 299 299 302 303 302 306 301 301 298 299 294 302 297 295 302 308 308 308 310 311 310 310 310 306 305 304 303 303 304 304 306 307
300 300 300 300 301 301 300 301 300 300 301 303 300 295 292 290 284 284 285 289 291 297 300 301 298 302 300 302 301 299 295 295 301 295 294 298 307 307 308 308 309 310 310 308 306 306 304 303 303 304 305 305 306 306
299 300 300 300 301 300 300 300 299 299 297 294 289 285 286 285 288 291 294 296 300 304 301 300 298 299 301 297 298 293 298 298 292 291 292 301 306 308 309 308 308 307 307 306 306 305 303 302 303 305 306 306 306 306
299 300 300 300 300 300 300 300 299 301 296 288 289 285 287 296 295 297 299 300 305 305 301 300 299 300 297 295 297 297 292 292 294 295 301 305 308 309 308 308 307 307 307 306 306 305 304 303 304 304 306 307 307 306
299 299 299 300 300 300 300 300 300 299 294 290 286 288 292 291 294 296 297 297 304 302 304 302 295 293 292 296 295 294 293 291 295 301 305 309 310 310 310 309 309 308 308 307 307 306 305 304 304 305 306 306 306 306
298 296 299 300 300 300 300 299 296 291 289 286 289 295 294 294 295 298 297 298 303 301 296 297 292 292 298 295 294 299 296 298 302 304 307 310 311 311 311 309 308 308 308 309 308 307 306 307 306 305 305 307 307 307
295 296 298 299 300 298 298 295 293 289 285 289 289 293 295 298 295 296 298 300 299 299 300 295 299 294 294 294 296 299 301 304 306 307 309 311 312 312 310 309 309 309 309 309 309 308 308 306 305 304 307 308 307 307
297 299 298 300 298 296 292 293 295 287 288 291 293 297 295 297 300 302 299 300 300 303 300 298 295 294 297 302 301 301 304 305 305 307 310 312 312 310 310 310 309 309 309 308 308 308 306 306 306 308 309 308 306 305
297 298 299 299 298 292 289 291 294 289 287 291 294 294 296 298 302 302 299 299 298 297 294 294 298 301 302 303 305 305 306 308 307 305 306 308 309 310 309 308 307 308 308 306 305 295 305 306 308 309 308 306 304 303
297 298 297 298 295 291 289 291 291 291 290 290 295 296 297 300 297 296 294 299 296 294 293 300 302 302 302 304 307 307 307 308 307 306 305 305 307 306 307 306 307 306 304 303 303 302 297 303 308 310 309 307 305 303
297 297 296 296 290 291 289 295 292 295 290 291 294 294 292 293 294 294 296 291 291 294 300 301 302 301 300 302 305 308 309 308 308 305 301 302 304 304 304 304 303 302 303 303 304 303 305 309 310 309 308 305 300 302
297 297 294 292 288 288 288 298 291 293 289 289 290 288 289 291 295 298 293 295 295 299 301 302 302 305 302 304 304 305 306 306 304 304 304 305 305 305 305 304 304 303 302 304 308 308 309 298 302 306 305 305 303 300
297 292 290 288 289 286 292 288 292 292 293 290 289 288 289 291 296 294 291 293 298 301 300 301 303 303 303 303 302 304 305 307 306 306 306 304 303 303 304 305 305 304 304 307 309 310 309 307 299 305 305 304 301 299
286 286 288 284 289 286 285 285 286 289 286 288 286 287 291 296 291 290 290 294 297 298 300 302 302 302 301 303 305 306 307 307 305 304 304 305 305 305 303 303 304 306 309 307 307 307 307 307 306 306 305 302 298 297
283 287 285 286 287 286 286 284 285 286 287 286 288 293 296 293 288 287 292 298 299 300 300 300 300 300 301 305 305 306 306 307 307 305 305 305 304 303 302 301 301 304 310 310 309 306 305 305 304 302 301 297 291 296
283 286 290 293 292 291 290 293 292 290 286 286 289 289 290 285 286 293 298 302 302 303 304 305 304 303 303 305 306 307 307 307 306 305 307 308 308 307 306 305 304 308 312 312 310 307 304 304 303 301 300 299 298 299
289 290 286 291 291 293 288 289 288 286 289 292 293 288 287 289 290 296 298 302 303 304 306 306 306 306 307 307 307 306 306 306 306 307 307 307 308 309 310 310 311 294 310 311 308 307 306 305 303 302 299 298 299 300
289 293 291 288 290 290 289 289 289 291 294 293 291 290 289 294 295 297 300 301 304 305 302 302 304 306 306 307 307 308 306 305 303 301 300 301 304 306 311 310 310 310 309 307 288 297 303 303 301 301 300 300 301 302
290 296 290 289 287 286 288 291 290 293 295 295 296 294 293 293 298 301 301 302 301 300 302 303 305 305 303 304 304 305 308 309 309 306 303 302 304 309 311 311 311 309 308 306 305 303 289 298 295 301 300 300 300 299
295 295 289 288 286 290 292 294 295 295 294 293 297 294 292 294 298 301 300 301 302 303 302 302 303 305 305 304 304 303 303 308 309 309 309 310 310 310 312 312 313 311 307 305 304 303 301 300 301 300 299 299 299 297
292 289 290 286 288 294 296 295 292 291 291 291 290 293 293 293 292 299 301 303 303 301 292 300 302 301 304 305 306 305 291 308 309 310 309 311 312 312 312 312 313 311 307 306 304 303 303 301 300 301 301 299 299 298
289 290 290 289 289 289 293 292 290 288 289 289 288 290 292 292 286 297 302 303 302 302 303 303 304 304 303 303 305 304 297 309 302 288 290 289 290 299 310 312 312 311 309 306 304 304 303 303 302 302 300 300 298 298
Wind_Speed
10 11 12 11 11 12 12 12 11 10 10 11 10 9 7 5 2 5 2 1 5 4 3 4 3 5 4 5 7 7 6 6 6 7 5 5 5 4 4 1 4 7 5 5 5 5 7 9 9 5 5 10 13 11
11 12 12 12 12 11 12 13 12 11 11 11 11 10 9 8 6 4 4 2 2 5 5 4 7 8 6 6 6 5 4 1 1 4 3 2 4 3 5 3 4 6 6 2 6 3 6 12 7 6 9 11 12 12
12 12 12 11 12 12 12 12 13 11 11 11 10 11 12 10 10 7 5 1 4 5 8 7 8 8 9 11 3 5 3 2 4 4 1 2 6 3 4 6 5 5 5 5 2 5 10 8 8 10 9 10 10 11
12 13 12 12 12 12 12 12 13 13 12 12 11 10 11 11 12 10 3 2 5 4 5 4 2 4 2 7 12 8 1 4 2 4 4 5 5 3 2 4 7 4 9 8 10 12 9 8 5 6 7 7 10 11
14 14 14 13 13 12 13 12 12 13 13 12 12 12 10 11 12 8 5 5 7 7 4 4 6 3 6 7 10 10 8 6 5 5 6 6 1 4 3 4 9 8 9 7 5 1 4 4 3 3 7 10 10 11
15 14 14 15 14 12 12 11 12 12 12 13 12 12 10 9 9 3 2 9 11 6 5 4 4 4 4 7 10 11 8 6 5 5 5 2 1 5 4 5 5 8 8 9 3 1 4 4 5 5 7 8 9 11
16 15 15 16 15 13 11 9 13 13 12 13 11 10 10 8 5 3 2 3 7 8 3 5 5 4 7 9 5 6 5 4 5 4 5 5 5 5 5 9 5 10 10 9 7 4 7 6 5 3 5 7 7 11
16 16 16 16 15 13 12 8 12 13 12 12 11 10 11 10 5 3 1 4 3 4 3 4 2 5 10 6 6 3 6 5 5 4 2 6 5 6 6 11 7 7 10 10 9 8 7 3 4 3 5 7 10 12
16 16 15 16 15 14 13 9 10 13 13 12 12 11 4 3 5 2 11 11 0 1 4 4 6 5 8 7 3 5 5 6 3 6 6 5 7 8 11 9 12 13 10 10 9 7 6 5 4 5 7 10 10 12
16 15 15 16 14 13 12 10 9 13 12 10 5 3 3 3 23 20 4 3 2 1 3 5 7 5 9 8 8 6 5 6 5 7 5 7 10 12 10 8 9 11 12 8 8 8 6 4 4 7 8 9 9 10
15 15 15 14 13 13 13 9 10 12 10 4 4 4 1 16 4 4 5 4 4 5 6 7 12 6 4 10 7 5 5 5 5 6 6 5 5 12 17 16 11 10 9 9 6 3 3 1 4 6 7 9 8 8
15 15 14 12 13 13 12 9 7 7 2 4 0 2 1 3 2 3 5 5 7 8 9 13 13 8 6 3 6 6 5 5 6 8 5 5 5 6 10 14 14 12 12 11 9 7 4 2 2 5 7 8 7 6
14 15 13 12 14 13 12 12 9 7 7 3 4 3 3 2 4 6 8 6 7 5 8 13 13 7 4 4 3 5 8 6 6 5 5 5 8 11 13 13 14 13 12 11 9 7 4 3 3 5 7 6 5 6
13 15 15 12 14 13 13 11 8 5 4 4 5 7 6 5 6 7 7 3 5 7 12 12 9 5 4 5 3 5 3 5 6 6 7 6 11 14 14 13 14 13 12 11 8 6 5 5 4 3 5 5 5 6
13 12 12 13 14 13 13 11 7 5 4 4 3 6 9 6 4 4 4 5 4 6 12 12 6 0 6 5 6 4 7 7 7 5 5 7 15 16 15 14 13 12 10 9 8 7 6 6 5 6 4 5 5 5
12 9 9 14 13 12 12 8 5 3 2 3 5 5 4 4 7 6 5 6 3 9 9 5 5 5 5 5 9 10 7 6 4 7 5 9 15 15 14 12 11 10 9 8 7 6 5 5 5 6 3 5 5 6
12 4 11 13 13 10 11 5 3 4 5 5 6 7 5 3 2 4 5 2 2 10 7 5 8 9 6 7 9 8 6 4 4 6 6 11 15 15 13 11 10 9 8 7 6 6 5 2 4 6 7 4 5 6
2 5 13 16 12 7 6 5 6 5 7 5 6 7 8 4 3 3 4 3 3 7 4 3 1 8 8 10 13 7 5 6 6 7 9 12 13 13 11 11 9 8 7 6 6 5 5 6 7 5 3 3 5 5
8 10 12 14 11 5 7 5 2 3 5 3 6 3 5 3 5 4 2 1 4 3 2 2 5 6 6 2 7 9 10 9 9 9 10 12 12 12 10 8 7 6 6 5 5 5 3 4 5 3 2 3 5 4
10 9 9 16 11 2 5 3 3 3 3 3 5 4 3 4 5 3 2 4 6 3 3 4 5 1 1 3 7 9 8 10 11 12 11 9 9 11 9 7 5 5 4 4 5 2 3 4 3 3 2 4 5 6
8 7 6 8 6 1 3 4 6 4 1 4 6 7 5 5 3 2 3 3 4 5 4 5 5 2 2 3 5 8 10 11 10 11 12 10 9 8 7 6 5 2 3 4 4 2 3 4 2 2 1 2 4 5
3 13 4 3 2 6 4 5 4 6 4 2 4 3 3 3 3 3 3 0 2 1 1 0 1 1 4 6 8 9 11 11 10 9 9 12 8 7 6 5 5 4 4 4 3 3 2 0 2 2 1 4 4 4
8 4 3 5 5 6 3 2 5 5 4 3 1 4 3 3 4 6 3 2 2 1 1 2 1 5 6 9 11 12 13 13 10 9 8 7 6 5 4 4 4 4 4 3 0 2 0 4 3 3 5 1 1 1
6 2 5 5 5 3 1 2 2 4 3 3 2 3 4 3 3 1 3 1 2 4 1 2 3 5 7 10 9 9 9 8 8 7 6 6 6 6 4 2 3 4 4 1 1 2 3 4 4 4 2 2 2 3
3 4 4 3 3 4 4 5 4 3 3 4 3 2 4 4 4 4 5 6 8 7 6 7 6 6 6 7 8 8 8 8 7 7 7 5 4 4 4 4 4 2 3 4 4 3 4 4 4 2 2 3 2 2
5 6 5 7 5 5 4 6 7 6 1 4 3 3 2 2 4 5 4 3 4 4 6 9 8 7 7 8 7 8 8 4 5 4 5 6 5 4 3 3 4 5 3 3 3 5 6 5 3 3 5 6 6 5
4 5 5 4 2 3 4 3 5 5 5 3 3 3 3 3 3 4 2 1 1 4 2 1 4 7 7 6 7 7 6 4 3 2 4 2 2 3 2 2 2 4 3 3 3 5 6 7 5 5 8 6 5 3
3 2 6 8 6 5 4 3 3 1 1 3 4 5 4 1 4 3 3 3 2 1 1 2 3 2 2 6 6 6 6 5 6 5 5 4 4 4 4 5 6 4 5 4 6 6 5 4 5 8 8 7 5 3
1 2 4 6 4 5 5 5 3 3 3 2 1 3 3 4 3 3 4 4 2 3 5 5 5 5 6 5 5 4 5 5 7 9 9 7 7 5 5 6 7 6 7 8 8 3 5 8 9 6 6 5 6 4
4 2 2 5 4 3 3 3 2 2 3 2 1 3 2 2 3 3 3 4 5 5 4 4 3 5 7 8 7 7 5 3 2 2 3 4 3 5 6 6 7 7 9 9 9 11 8 9 5 1 2 6 6 6
2 3 3 3 2 2 2 3 3 4 3 3 4 4 3 2 1 3 3 3 3 4 4 6 6 5 5 6 6 7 7 4 4 3 2 1 3 5 5 6 8 8 10 11 11 11 10 6 5 6 8 8 7 4
2 2 3 4 2 1 2 1 2 3 3 3 3 2 2 1 1 3 2 2 2 4 4 3 5 5 5 4 4 6 3 6 5 4 4 3 2 2 4 7 9 11 12 13 11 12 14 12 6 6 7 8 7 9
2 3 3 4 4 3 3 3 3 3 3 2 2 2 2 1 1 2 2 1 2 3 2 3 2 2 3 3 4 4 1 3 6 3 2 3 6 4 5 7 8 10 13 12 11 10 12 12 10 8 10 9 10 11
Wind_Direction
287 294 299 303 315 323 320 327 328 324 303 281 276 268 252 261 252 294 29 284 300 283 280 226 216 240 217 245 239 111 183 191 199 239 256 218 255 184 239 221 200 209 203 212 235 248 250 145 159 214 284 308 306 307
272 284 289 294 300 313 320 319 320 319 317 292 273 262 242 239 207 246 257 156 257 263 343 316 281 271 256 305 303 180 8 131 247 238 235 249 215 184 241 233 193 236 226 264 214 277 109 182 249 274 288 285 299 305
268 267 273 281 289 295 309 310 316 312 316 309 282 265 241 226 191 212 288 253 228 268 262 227 235 217 231 229 253 265 184 39 183 337 318 303 252 252 223 234 233 222 199 235 255 225 230 244 251 270 279 286 292 312
285 278 263 270 276 284 292 306 304 312 309 310 307 276 251 232 194 190 225 231 265 294 274 125 143 214 154 214 220 233 31 117 107 229 235 245 251 209 248 344 254 1 159 233 245 266 265 258 253 290 303 290 290 314
273 273 283 272 265 268 280 292 299 299 303 301 302 297 267 235 202 196 230 241 265 284 320 317 292 213 208 200 199 196 196 206 204 200 221 229 320 222 196 279 250 186 232 209 239 106 230 290 305 292 285 306 319 320
265 267 271 272 265 243 262 281 295 295 302 303 299 301 290 249 186 134 240 213 218 218 270 263 76 186 171 182 180 186 182 210 231 232 232 215 108 244 231 250 251 198 219 225 257 211 246 300 292 283 293 317 321 322
259 261 264 266 273 242 237 263 284 293 293 300 294 302 309 266 174 193 201 35 168 183 223 247 214 140 172 157 156 168 187 190 237 204 230 236 184 218 251 245 245 201 206 207 215 210 244 225 293 345 297 312 315 312
256 255 262 265 267 243 230 240 275 287 291 300 303 292 296 301 228 236 161 126 186 207 216 243 201 186 184 179 170 193 183 197 195 236 189 230 143 223 248 235 229 194 191 197 202 211 269 298 274 287 299 311 312 319
255 251 258 268 251 237 221 228 266 277 286 289 302 286 292 187 204 143 147 114 42 207 212 218 200 185 172 187 136 178 213 207 108 229 220 209 206 218 230 228 195 192 195 193 190 192 207 238 290 295 307 320 328 322
250 249 256 266 236 234 214 221 260 267 274 293 277 214 211 212 122 119 139 140 161 197 259 229 236 182 203 174 182 166 196 226 211 208 140 229 245 230 232 215 200 192 198 180 182 192 204 246 263 315 328 328 322 317
243 245 253 257 233 224 214 218 244 259 248 209 219 224 43 150 180 155 149 162 164 210 199 212 207 168 219 187 172 228 183 170 231 163 210 229 247 228 216 205 186 172 177 189 204 155 166 269 315 315 327 335 317 315
241 240 244 248 228 216 221 214 235 212 200 310 334 95 110 234 193 147 180 182 201 209 181 196 183 181 151 187 218 171 208 188 242 135 221 236 223 170 171 185 191 191 178 170 169 167 180 197 257 310 318 327 322 325
240 234 236 249 214 210 211 204 209 272 327 259 212 153 236 166 198 209 185 203 201 196 159 161 158 148 134 201 212 190 199 207 125 202 233 234 135 161 156 151 150 155 158 158 165 177 194 220 214 301 322 327 302 309
239 231 230 231 197 203 209 194 208 238 233 215 181 204 213 188 226 198 230 190 209 209 162 167 145 137 117 183 162 203 196 158 213 212 223 202 168 167 161 156 152 156 159 167 175 197 224 249 310 308 312 300 293 315
230 229 230 210 195 203 204 198 196 203 218 215 214 219 212 214 219 273 268 282 175 158 163 152 98 131 133 148 223 182 184 219 208 214 207 156 162 162 162 161 158 158 167 177 191 207 233 248 286 294 314 278 282 307
220 229 219 183 189 194 198 185 173 227 216 253 207 245 228 238 208 196 234 236 184 171 156 98 122 165 191 207 195 199 199 212 191 205 138 147 156 160 160 161 158 165 175 189 199 218 246 270 305 319 291 271 291 307
194 200 178 181 185 189 178 192 172 219 209 224 230 232 244 283 228 212 163 248 233 187 168 148 170 179 182 212 199 198 193 158 159 134 146 153 157 155 155 153 160 165 181 202 214 227 262 270 276 285 283 278 292 313
166 173 185 184 174 168 184 205 193 195 238 237 245 201 213 226 210 209 207 142 189 206 193 189 134 201 203 202 194 148 165 120 132 137 136 143 145 146 149 154 160 174 195 216 227 260 281 276 289 292 303 277 283 302
174 176 180 179 176 211 171 189 209 248 242 253 249 202 194 204 227 239 178 201 214 297 119 207 220 228 203 209 161 162 155 153 145 136 131 138 141 140 140 148 165 177 199 227 250 268 315 314 320 325 289 283 314 335
160 174 168 163 181 187 208 153 171 240 255 227 229 194 217 210 185 198 130 224 188 161 210 233 233 249 259 149 164 149 144 136 138 137 137 138 136 140 151 163 187 136 198 209 228 298 209 228 222 234 321 2 324 347
163 151 146 162 195 103 281 194 198 221 192 256 210 192 214 179 176 187 84 275 188 171 206 242 294 59 343 107 122 129 143 153 153 151 148 144 154 146 153 152 168 196 259 267 265 132 218 277 10 209 211 6 4 13
134 159 139 125 178 191 243 244 244 152 211 253 192 167 203 198 148 179 115 47 192 270 257 215 322 107 126 127 136 133 125 114 100 101 111 126 150 163 174 179 189 222 236 255 273 285 305 182 199 184 231 78 32 26
155 142 116 199 195 196 240 238 234 200 229 150 135 146 185 164 196 153 201 162 155 212 220 126 273 288 133 132 127 129 132 133 134 129 148 151 154 160 171 177 214 247 262 221 290 316 344 59 144 250 105 162 13 327
95 194 207 190 209 190 194 236 246 244 224 136 251 182 167 147 153 159 111 171 147 180 279 78 203 197 154 157 144 138 145 130 129 135 150 157 170 174 202 233 225 239 255 5 194 194 161 190 123 198 129 321 354 346
180 206 192 195 201 172 209 193 209 261 218 161 161 278 140 163 138 165 174 165 162 179 182 189 220 205 188 183 159 142 156 170 168 157 162 188 168 127 192 211 221 251 170 184 190 209 183 168 189 140 72 43 43 346
237 175 213 198 175 213 196 175 189 211 217 223 178 125 136 164 164 135 140 89 120 146 175 190 192 198 213 198 175 161 164 162 133 181 162 186 193 219 225 219 239 158 188 249 213 195 184 155 153 148 112 101 86 87
227 164 175 240 231 198 216 138 129 157 185 235 162 158 151 165 169 93 94 74 23 81 85 236 224 189 187 170 129 111 123 141 164 90 92 152 217 236 262 260 301 47 117 177 187 167 148 184 164 156 130 140 150 210
271 208 174 166 177 206 196 147 114 91 122 233 226 178 181 56 67 52 35 55 29 58 118 151 203 222 174 135 145 150 141 129 131 147 130 126 132 130 119 105 81 63 114 137 135 157 156 163 151 123 148 147 164 242
207 145 127 132 123 65 25 6 43 60 336 349 71 76 69 48 5 7 48 28 19 160 140 135 128 132 127 127 121 130 143 165 165 170 178 154 156 148 134 120 140 137 124 111 48 58 122 114 127 127 133 161 209 202
102 333 112 63 45 55 44 348 51 57 43 52 19 116 85 55 37 16 19 33 59 69 76 92 105 125 133 131 124 119 105 90 54 170 186 179 147 153 164 147 150 143 134 133 123 119 111 117 94 111 152 148 136 127
5 66 74 57 69 32 96 115 105 81 68 33 19 85 79 59 122 69 57 31 25 49 66 82 74 62 93 118 131 143 130 102 91 80 336 251 199 192 156 166 156 148 146 144 136 137 129 146 155 138 139 151 154 153
29 339 108 105 110 219 148 59 71 54 36 54 44 65 110 184 125 107 42 332 32 70 64 40 80 77 61 77 76 78 357 100 95 56 38 21 336 181 169 161 159 157 160 158 159 144 147 163 182 209 187 158 149 124
111 93 120 127 151 166 113 95 57 78 46 63 60 32 55 26 136 2 61 339 350 15 51 70 73 86 68 41 51 77 100 80 66 38 340 329 34 19 136 147 149 149 159 170 174 173 179 178 185 188 153 146 139 137